FW2089 Weather Reports


time (UTC)temp
F
wind
direction
speed
knots
gust
knots
rain 1hr
in
rain 24hr
in
rain mn
in
humidity
%
barometer
mb
20260507170218 63 0.0 0.0 0.00 0.33 0.21 43 1007.7
20260507165710 63 0.0 0.0 0.00 0.33 0.21 47 1007.8
20260507165200 63 0.0 0.0 0.00 0.33 0.21 43 1007.7
20260507164648 63 0.0 0.0 0.00 0.33 0.21 43 1007.8
20260507164409 62 0.0 0.0 0.00 0.33 0.21 44 1007.9
20260507163634 62 0.0 0.0 0.00 0.33 0.21 44 1007.9
20260507163124 62 0.0 0.0 0.00 0.33 0.21 43 1008.0
20260507162831 62 0.0 0.0 0.00 0.33 0.21 44 1008.0
20260507162106 62 0.0 0.0 0.00 0.33 0.21 47 1008.0
20260507161815 62 0.0 0.0 0.00 0.33 0.21 50 1008.1
20260507161055 62 0.0 0.0 0.00 0.33 0.21 51 1008.0
20260507160818 62 0.0 0.0 0.00 0.33 0.21 49 1008.1
20260507160041 62 0.0 0.0 0.00 0.33 0.21 55 1008.1
20260507155533 61 0.0 0.0 0.00 0.33 0.21 55 1008.2
20260507155031 61 0.0 0.0 0.00 0.33 0.21 56 1008.3
20260507154522 60 0.0 0.0 0.00 0.33 0.21 57 1008.3
20260507154011 60 0.0 0.0 0.00 0.33 0.21 57 1008.3
20260507153502 60 0.0 0.0 0.00 0.33 0.21 57 1008.5
20260507153002 60 0.0 0.0 0.00 0.33 0.21 61 1008.4
20260507152718 60 0.0 0.0 0.00 0.33 0.21 63 1008.4
20260507152002 59 0.0 0.0 0.00 0.33 0.21 65 1008.4
20260507151434 59 0.0 0.0 0.00 0.33 0.21 66 1008.5
20260507151152 59 0.0 0.0 0.00 0.33 0.21 67 1008.5
20260507150422 58 0.0 0.0 0.00 0.33 0.21 67 1008.5
20260507145911 58 0.0 0.0 0.00 0.33 0.21 70 1008.6
20260507145400 57 0.0 0.0 0.00 0.33 0.21 71 1008.6
20260507144857 57 0.0 0.0 0.00 0.33 0.21 67 1008.7
20260507144348 57 0.0 0.0 0.00 0.33 0.21 72 1008.6
20260507143846 56 0.0 0.0 0.00 0.33 0.21 70 1008.6
20260507143340 56 0.0 0.0 0.00 0.33 0.21 72 1008.9
20260507142830 55 0.0 0.0 0.00 0.33 0.21 77 1008.9
20260507142328 55 0.0 0.0 0.00 0.33 0.21 77 1008.9
20260507141801 55 0.0 0.0 0.00 0.33 0.21 76 1008.8
20260507141258 54 0.0 0.0 0.00 0.33 0.21 76 1008.8
20260507140800 54 0.0 0.0 0.00 0.33 0.21 78 1008.8
20260507140300 53 0.0 0.0 0.00 0.33 0.21 80 1008.9
20260507135758 53 0.0 0.0 0.00 0.33 0.21 83 1008.9
20260507135257 53 0.0 0.0 0.00 0.33 0.21 84 1008.9
20260507134758 52 0.0 0.0 0.00 0.33 0.21 86 1008.8
20260507134517 52 0.0 0.0 0.00 0.33 0.21 88 1008.9
20260507133756 52 0.0 0.0 0.00 0.33 0.21 89 1008.8
20260507133254 51 0.0 0.0 0.00 0.33 0.21 89 1009.0
20260507132737 51 0.0 0.0 0.00 0.33 0.21 91 1009.0
20260507132222 51 0.0 0.0 0.00 0.33 0.21 91 1008.9
20260507131722 51 0.0 0.0 0.00 0.33 0.21 92 1009.0
20260507131223 51 0.0 0.0 0.00 0.33 0.21 92 1009.0
20260507130657 51 0.0 0.0 0.00 0.33 0.21 92 1009.2
20260507130145 50 0.0 0.0 0.00 0.33 0.21 92 1009.0
20260507125857 50 0.0 0.0 0.00 0.33 0.21 92 1009.2
20260507125349 50 0.0 0.0 0.00 0.33 0.21 92 1009.1
20260507124623 50 0.0 0.0 0.00 0.33 0.21 92 1009.1
20260507124122 50 0.0 0.0 0.00 0.33 0.21 92 1009.2
20260507123622 50 0.0 0.0 0.00 0.33 0.21 92 1009.3
20260507123111 50 59 0.0 0.0 0.00 0.33 0.21 92 1009.3
20260507122604 50 59 0.0 0.0 0.00 0.33 0.21 92 1009.3
20260507122104 50 59 0.0 0.9 0.00 0.33 0.21 92 1009.4
20260507121603 50 59 0.0 0.9 0.00 0.33 0.21 92 1009.4
20260507121331 50 59 0.0 0.9 0.00 0.33 0.21 92 1009.3
20260507120557 49 66 0.0 0.0 0.00 0.33 0.21 92 1009.1
20260507120057 49 0.0 0.0 0.00 0.33 0.21 92 1009.3
20260507115522 49 0.0 0.0 0.00 0.33 0.21 92 1009.1
20260507115022 49 0.0 0.0 0.00 0.33 0.21 91 1009.0
20260507114522 49 0.0 0.0 0.00 0.33 0.21 91 1009.0
20260507114022 49 0.0 0.0 0.00 0.33 0.21 91 1009.2
20260507113522 49 0.0 0.0 0.00 0.33 0.21 91 1009.0
20260507113015 49 0.0 0.0 0.00 0.33 0.21 91 1009.1
20260507112503 49 0.0 0.0 0.01 0.33 0.21 91 1008.9
20260507112227 49 0.0 0.0 0.01 0.33 0.21 91 1008.8
20260507111453 49 0.0 0.0 0.01 0.33 0.21 91 1008.9
20260507110953 49 0.0 0.0 0.01 0.33 0.21 91 1008.9
20260507110649 49 0.0 0.0 0.02 0.33 0.21 91 1008.9
20260507105923 49 0.0 0.0 0.02 0.33 0.21 91 1008.9
20260507105424 49 0.0 0.0 0.02 0.33 0.21 91 1008.6
20260507105136 49 0.0 0.0 0.02 0.33 0.21 91 1008.4
20260507104413 49 0.0 0.0 0.03 0.33 0.21 91 1008.6
20260507103906 49 0.0 0.0 0.03 0.33 0.21 91 1008.6
20260507103405 49 0.0 0.0 0.04 0.33 0.21 90 1008.9
20260507102900 49 0.0 0.0 0.05 0.33 0.21 90 1009.0
20260507102613 49 0.0 0.0 0.05 0.32 0.20 90 1009.0
20260507101847 49 0.0 0.0 0.05 0.32 0.20 90 1009.1
20260507101322 49 0.0 0.0 0.05 0.32 0.20 90 1008.5
20260507100802 49 0.0 0.0 0.06 0.32 0.20 90 1008.5
20260507100301 49 0.0 0.0 0.06 0.31 0.19 90 1008.7
20260507095759 49 0.0 0.0 0.07 0.31 0.19 90 1008.9
20260507095239 49 0.0 0.0 0.08 0.31 0.19 90 1008.6
20260507094735 49 0.0 0.0 0.09 0.31 0.19 90 1008.4
20260507094228 49 0.0 0.0 0.10 0.30 0.18 90 1008.2
20260507093729 49 0.0 0.0 0.11 0.30 0.18 89 1008.4
20260507093201 49 0.0 0.0 0.12 0.29 0.17 89 1008.3
20260507092659 49 0.0 0.0 0.11 0.28 0.16 89 1008.4
20260507092158 49 0.0 0.0 0.11 0.27 0.15 89 1008.4
20260507091656 50 0.0 0.0 0.11 0.27 0.15 89 1008.2
20260507091157 50 0.0 0.0 0.11 0.27 0.15 89 1008.0
20260507090905 50 0.0 0.0 0.11 0.26 0.14 88 1008.0
20260507090359 50 0.0 0.0 0.11 0.25 0.13 88 1008.2
20260507085639 50 0.0 0.0 0.10 0.24 0.12 87 1008.4
20260507085135 51 0.0 0.0 0.09 0.23 0.11 87 1008.4
20260507084625 51 0.0 0.0 0.08 0.22 0.10 87 1008.5
20260507084045 51 0.0 0.0 0.07 0.20 0.08 87 1008.5
20260507083521 51 0.0 0.0 0.05 0.18 0.06 87 1008.5
20260507083218 51 0.0 0.0 0.04 0.17 0.05 86 1008.5
20260507082441 52 0.0 0.0 0.04 0.17 0.05 87 1008.3
20260507082129 52 0.0 0.0 0.03 0.16 0.04 86 1008.0
20260507081403 52 0.0 0.0 0.03 0.16 0.04 86 1008.0
20260507080849 53 0.0 0.0 0.02 0.15 0.03 87 1008.2
20260507080339 53 0.0 0.0 0.02 0.15 0.03 87 1008.4
20260507075822 53 0.0 0.0 0.01 0.14 0.02 87 1008.3
20260507075322 53 0.0 0.0 0.01 0.14 0.02 87 1008.3
20260507075044 53 0.0 0.0 0.01 0.14 0.02 87 1008.1
20260507074305 53 0.0 0.0 0.00 0.13 0.01 87 1008.0
20260507073803 53 0.0 0.0 0.00 0.13 0.01 88 1008.1
20260507073301 54 0.0 0.0 0.00 0.13 0.01 88 1007.9
20260507072800 54 0.0 0.0 0.00 0.13 0.01 89 1007.8
20260507072257 54 0.0 0.0 0.00 0.13 0.01 90 1007.6
20260507071759 54 0.0 0.0 0.00 0.13 0.01 90 1007.4
20260507071256 54 0.0 0.0 0.00 0.13 0.01 90 1007.1
20260507070743 54 0.0 0.0 0.00 0.13 0.01 90 1007.3
20260507070428 54 0.0 0.0 0.00 0.13 0.01 90 1007.3
20260507065658 54 0.0 0.0 0.00 0.13 0.01 90 1007.3
20260507065156 54 0.0 0.0 0.00 0.13 0.01 90 1007.3
20260507064653 55 0.0 0.0 0.00 0.13 0.01 91 1007.0
20260507064406 55 0.0 0.0 0.00 0.13 0.01 91 1007.3
20260507063606 55 0.0 0.0 0.00 0.13 0.01 91 1007.3
20260507063104 55 0.0 0.0 0.00 0.13 0.01 91 1007.7
20260507062601 55 0.0 0.0 0.00 0.13 0.01 91 1007.4
20260507062323 55 0.0 0.0 0.00 0.13 0.01 91 1007.4
20260507061541 55 0.0 0.0 0.00 0.13 0.01 91 1007.3
20260507061033 55 0.0 0.0 0.00 0.13 0.01 91 1007.3
20260507060458 55 0.0 0.0 0.00 0.13 0.01 92 1007.3
20260507055945 56 0.0 0.0 0.00 0.13 0.01 92 1007.5
20260507055701 56 0.0 0.0 0.00 0.13 0.01 92 1007.6
20260507054934 56 0.0 0.0 0.00 0.13 0.01 92 1007.6
20260507054434 56 0.0 0.0 0.00 0.13 0.01 93 1007.5
20260507054149 57 0.0 0.0 0.00 0.13 0.01 93 1007.7
20260507053357 57 0.0 0.0 0.00 0.13 0.01 93 1007.8
20260507053346 58 0.0 0.0 0.00 0.13 0.01 93 1007.9
20260507052350 58 0.0 0.0 0.01 0.13 0.01 93 1007.6
20260507052104 58 0.0 0.0 0.01 0.13 0.01 93 1007.7
20260507051337 58 0.0 0.0 0.01 0.13 0.01 93 1007.6
20260507050822 58 0.0 0.0 0.01 0.13 0.01 93 1007.5
20260507050541 58 0.0 0.0 0.01 0.13 0.01 93 1007.4
20260507045821 58 0.0 0.0 0.01 0.13 0.01 93 1007.5
20260507045321 59 0.0 0.0 0.01 0.13 0.01 94 1007.5
20260507044756 59 0.0 0.0 0.01 0.13 0.01 94 1007.5
20260507044253 59 0.0 0.0 0.01 0.13 0.01 94 1007.7
20260507043700 59 0.0 0.0 0.01 0.13 0.01 94 1007.7
20260507043154 59 0.0 0.0 0.01 0.13 0.01 94 1007.5
20260507042640 59 0.0 0.0 0.01 0.13 0.01 94 1007.4
20260507042056 59 0.0 0.0 0.00 0.12 0.00 94 1007.3
20260507041527 59 0.0 0.0 0.00 0.12 0.00 94 1007.4
20260507041232 59 0.0 0.0 0.00 0.12 0.00 94 1007.3
20260507040458 59 0.0 0.0 0.00 0.12 0.00 94 1007.4
20260507035923 59 0.0 0.0 0.00 0.12 0.12 94 1007.5
20260507035358 59 0.0 0.0 0.00 0.12 0.12 94 1007.6
20260507034857 59 0.0 0.0 0.00 0.12 0.12 94 1007.7
20260507034358 59 0.0 0.0 0.00 0.12 0.12 94 1007.6
20260507033839 59 0.0 0.0 0.00 0.12 0.12 94 1007.6
20260507033325 59 0.0 0.0 0.00 0.12 0.12 94 1007.6
20260507032822 59 0.0 0.0 0.00 0.12 0.12 94 1007.5
20260507032307 59 0.0 0.0 0.00 0.12 0.12 94 1007.4
20260507031805 58 0.0 0.0 0.00 0.12 0.12 93 1007.3
20260507031303 58 0.0 0.0 0.00 0.12 0.12 93 1007.2
20260507030943 58 0.0 0.0 0.00 0.12 0.12 93 1007.2
20260507030203 58 0.0 0.0 0.00 0.12 0.12 93 1007.2
20260507025652 58 0.0 0.0 0.00 0.12 0.12 93 1007.2
20260507025153 58 0.0 0.0 0.00 0.12 0.12 93 1007.2
20260507024617 58 0.0 0.0 0.00 0.12 0.12 93 1007.0
20260507024102 58 0.0 0.0 0.00 0.12 0.12 93 1007.0
20260507023601 58 0.0 0.0 0.00 0.12 0.12 93 1007.0
20260507023059 58 0.0 0.0 0.00 0.12 0.12 93 1007.1
20260507022051 58 0.0 0.0 0.00 0.12 0.12 93 1007.0
20260507021551 58 0.0 0.0 0.00 0.12 0.12 93 1007.0
20260507021022 58 0.0 0.0 0.00 0.12 0.12 93 1007.0
20260507020505 58 0.0 0.0 0.00 0.12 0.12 93 1007.0
20260507020222 58 0.0 0.0 0.00 0.12 0.12 93 1007.2
20260507015458 58 0.0 0.0 0.00 0.12 0.12 93 1007.2
20260507015409 58 0.0 0.0 0.00 0.12 0.12 93 1007.0
20260507014643 58 0.0 0.0 0.00 0.12 0.12 93 1007.0
20260507013922 58 0.0 0.0 0.00 0.12 0.12 93 1007.2
20260507013422 58 0.0 0.0 0.00 0.12 0.12 93 1007.2
20260507012918 58 0.0 0.0 0.00 0.12 0.12 93 1007.3
20260507012401 58 0.0 0.0 0.00 0.12 0.12 93 1007.4
20260507011902 58 0.0 0.0 0.00 0.12 0.12 93 1007.4
20260507011347 58 0.0 0.0 0.00 0.12 0.12 93 1007.5
20260507011111 58 0.0 0.0 0.00 0.12 0.12 93 1007.6
20260507010345 58 0.0 0.0 0.00 0.12 0.12 92 1007.5
20260507010046 58 0.0 0.0 0.00 0.12 0.12 92 1007.6
20260507005317 58 0.0 0.0 0.00 0.12 0.12 92 1007.6
20260507004809 58 0.0 0.0 0.01 0.12 0.12 92 1007.6
20260507004304 58 0.0 0.0 0.01 0.12 0.12 92 1007.6
20260507003759 58 0.0 0.0 0.01 0.12 0.12 92 1007.6
20260507003301 58 0.0 0.0 0.01 0.12 0.12 92 1007.5
20260507002801 58 0.0 0.0 0.01 0.12 0.12 92 1007.5
20260507002253 58 0.0 0.0 0.01 0.12 0.12 92 1007.5
20260507001752 58 0.0 0.0 0.02 0.12 0.12 92 1007.4
20260507001727 58 0.0 0.0 0.03 0.12 0.12 92 1007.4
20260507000737 58 0.0 0.0 0.04 0.12 0.12 92 1007.3
20260507000221 58 0.0 0.0 0.04 0.12 0.12 92 1007.3
20260506235945 58 0.0 0.0 0.04 0.12 0.12 91 1007.2
20260506235200 59 0.0 0.0 0.04 0.12 0.12 91 1007.2
20260506234701 59 0.0 0.0 0.03 0.11 0.11 91 1007.1
20260506234133 59 0.0 0.0 0.03 0.11 0.11 91 1007.2
20260506233632 59 0.0 0.0 0.03 0.11 0.11 91 1007.1
20260506233102 59 0.0 0.0 0.03 0.11 0.11 91 1007.1
20260506232600 59 0.0 0.0 0.03 0.11 0.11 91 1007.1
20260506232047 59 0.0 0.0 0.03 0.11 0.11 91 1007.0
20260506231540 59 0.0 0.0 0.01 0.09 0.10 91 1007.0
20260506231302 59 0.0 0.0 0.00 0.08 0.08 91 1007.3
20260506230748 59 0.0 0.0 0.00 0.08 0.08 91 1007.1
20260506230248 60 0.0 0.0 0.00 0.08 0.08 91 1007.2
20260506225501 60 0.0 0.0 0.00 0.08 0.08 91 1007.2
20260506224956 60 0.0 0.0 0.00 0.08 0.08 91 1007.2
20260506224713 60 0.0 0.0 0.01 0.08 0.08 91 1007.2
20260506223949 60 0.0 0.0 0.01 0.08 0.08 91 1007.2
20260506223451 60 0.0 0.0 0.01 0.08 0.08 91 1007.2
20260506223209 60 0.0 0.0 0.02 0.08 0.08 90 1007.2
20260506222440 60 0.0 0.0 0.02 0.08 0.08 90 1007.4
20260506221933 60 0.0 0.0 0.03 0.08 0.08 90 1007.4
20260506221649 60 0.0 0.0 0.03 0.08 0.08 90 1007.6
20260506220931 61 148 0.0 0.0 0.04 0.08 0.08 90 1007.5
20260506220425 61 148 0.0 0.0 0.04 0.08 0.08 90 1007.5
20260506215923 61 148 0.0 0.9 0.04 0.08 0.08 89 1007.6
20260506215421 61 148 0.0 0.9 0.05 0.08 0.08 89 1007.5
20260506215409 61 157 0.0 0.9 0.06 0.08 0.08 89 1007.5
20260506214421 61 158 0.0 1.7 0.05 0.07 0.08 89 1007.5
20260506213922 61 157 0.0 2.6 0.05 0.07 0.07 89 1007.8
20260506213422 61 156 0.0 2.6 0.05 0.07 0.07 89 1007.9
20260506212921 61 95 0.0 3.5 0.04 0.06 0.06 88 1007.9
20260506212421 61 157 0.0 3.5 0.05 0.06 0.06 88 1008.0
20260506211921 62 195 0.0 0.9 0.04 0.05 0.05 88 1008.0
20260506211421 62 207 0.0 2.6 0.04 0.05 0.05 88 1007.9
20260506210922 62 207 0.0 2.6 0.03 0.04 0.04 88 1007.9
20260506210421 62 320 0.0 1.7 0.03 0.04 0.04 87 1007.9
20260506205921 62 320 0.0 3.5 0.03 0.04 0.04 87 1007.9
20260506205421 62 320 0.9 3.5 0.02 0.03 0.03 86 1008.0
20260506204921 62 37 0.9 2.6 0.01 0.02 0.02 86 1008.2
20260506204421 62 112 0.9 2.6 0.01 0.02 0.02 85 1008.1
20260506203921 62 114 0.9 5.2 0.02 0.02 0.02 85 1008.1
20260506203421 62 223 0.9 5.2 0.02 0.02 0.02 85 1008.3
20260506202922 63 111 0.0 2.6 0.02 0.02 0.02 83 1008.3
20260506202410 63 107 0.0 1.7 0.01 0.01 0.01 83 1008.3
20260506201908 63 107 0.9 2.6 0.01 0.01 0.01 82 1008.3
20260506201622 63 133 0.9 6.1 0.01 0.01 0.01 82 1008.3
20260506200905 64 129 0.9 6.1 0.01 0.01 0.01 81 1008.3
20260506200405 64 96 0.0 1.7 0.01 0.01 0.01 81 1008.3
20260506195900 64 96 0.0 5.2 0.01 0.01 0.01 80 1008.2
20260506195326 65 96 0.0 5.2 0.01 0.01 0.01 80 1008.2
20260506194821 65 3 0.0 0.9 0.01 0.01 0.01 79 1008.1
20260506194321 65 3 0.0 0.9 0.01 0.01 0.01 78 1008.3
20260506193821 65 3 0.0 2.6 0.00 0.00 0.00 77 1008.5
20260506193321 66 3 0.9 4.3 0.00 0.00 0.00 76 1008.4
20260506192820 66 190 0.9 4.3 0.00 0.00 0.00 75 1008.5
20260506192321 67 109 0.0 2.6 0.00 0.00 0.00 74 1008.4
20260506191803 67 159 0.0 1.7 0.00 0.00 0.00 73 1008.6
20260506191303 68 162 0.0 4.3 0.00 0.00 0.00 72 1008.5
20260506190758 68 162 0.0 4.3 0.00 0.00 0.00 71 1008.5
20260506190526 68 57 0.0 1.7 0.00 0.00 0.00 70 1008.4
20260506185800 69 51 0.0 2.6 0.00 0.00 0.00 68 1008.4
20260506185300 69 148 0.0 7.0 0.00 0.00 0.00 67 1008.3
20260506184801 69 28 0.9 7.0 0.00 0.00 0.00 67 1008.4
20260506184512 69 114 0.0 2.6 0.00 0.00 0.00 66 1008.4
20260506184015 69 170 0.0 4.3 0.00 0.00 0.00 65 1008.5
20260506183250 70 160 0.0 4.3 0.00 0.00 0.00 64 1008.5
20260506182751 70 16 0.9 4.3 0.00 0.00 0.00 63 1008.5
20260506182248 70 51 0.9 4.3 0.00 0.00 0.00 62 1008.5
20260506181748 71 54 0.9 2.6 0.00 0.00 0.00 62 1008.5
20260506181509 71 113 0.9 2.6 0.00 0.00 0.00 61 1008.5
20260506181010 72 136 0.9 3.5 0.00 0.00 0.00 61 1008.7
20260506180246 72 49 0.9 3.5 0.00 0.00 0.00 60 1008.7
20260506175734 72 170 0.9 4.3 0.00 0.00 0.00 60 1008.8
20260506175230 73 163 0.9 5.2 0.00 0.00 0.00 59 1008.9
20260506174710 73 35 0.9 5.2 0.00 0.00 0.00 60 1009.1
20260506174206 73 116 0.9 7.8 0.00 0.00 0.00 61 1009.0
20260506173705 73 113 0.9 7.8 0.00 0.00 0.00 62 1009.1
20260506173206 73 162 0.9 8.7 0.00 0.00 0.00 61 1009.0
20260506172700 73 152 0.9 8.7 0.00 0.00 0.00 60 1009.1
20260506172159 73 134 0.9 5.2 0.00 0.00 0.00 60 1009.0
20260506171659 74 154 0.9 2.6 0.00 0.00 0.00 61 1009.1
20260506171200 74 17 0.9 5.2 0.00 0.00 0.00 60 1009.1
20260506170650 74 47 0.9 5.2 0.00 0.00 0.00 61 1009.0